Current weather by "City, St" or "zip code"  
 

Current Conditions: Ogallala, Searle Field Airport, NE

Partly Cloudy and Breezy


58.0 F

Last Updated on Oct 31 2020, 12:55 pm MDT
Humidity: 32%
Wind Speed: N 20.7 mph
Barometer 30.17 in
Dewpoint: 28.2 F
Visibility: 10.00 mi
Precip: --
Heat Index: NA
Wind Chill: 54 F
Current conditions at:

Ogallala, Searle Field Airport, NE (KOGA)

Lat: 41.11972 Lon: 101.76889

Local Radar Image active severe weather and emergency alerts image image weather storm and storm spotter reports image weather observation monitoring service image
Local
Radar
Active
Alerts
Storm Reports Obs
Monitoring

Sign-up For Email & Text Message Weather Alert Notification Services



Advertise Here

Observation History for Ogallala, Searle Field Airport, NE


Time Wind
(mph)
Vis
(mi)
Weather Precip (in) Temperature (F) Relative
Humidity
Wind
Chill
(F)
Heat
Index
(F)
Pressure
Air Dwpt altimeter
(in)
sea level
(mb)
Rmks
12:55 pm MDT N 20.7 10.00 Partly Cloudy and Breezy -- 58.0 28.2 32% 54 NA 30.17 M
11:55 am MDT N 16.1 G 23.0 10.00 Partly Cloudy -- 56.0 30.7 38% 52 NA 30.17 M
11:35 am MDT NW 12.7 10.00 Partly Cloudy -- 55.0 31.8 42% 52 NA 30.16 M
10:55 am MDT N 12.7 G 17.3 10.00 Mostly Cloudy -- 55.0 30.0 39% 52 NA 30.14 M
9:55 am MDT N 17.3 G 23.0 10.00 Fair -- 54.0 29.7 40% 49 NA 30.09 M
8:55 am MDT N 17.3 10.00 Fair -- 51.0 30.6 46% 45 NA 30.07 M
7:55 am MDT NW 6.9 10.00 Fair -- 37.0 31.8 83% 32 NA 30.01 M
6:55 am MDT W 5.8 10.00 Fair -- 33.0 30.0 88% 28 NA 29.97 M
5:55 am MDT W 5.8 10.00 Fair -- 38.0 32.2 79% 34 NA 29.93 M
4:55 am MDT W 8.1 10.00 Fair -- 36.0 32.0 86% 30 NA 29.88 M
3:55 am MDT W 8.1 10.00 Fair -- 36.0 32.0 86% 30 NA 29.85 M
2:55 am MDT SW 3.5 10.00 Fair -- 33.0 30.4 90% NA NA 29.84 M
1:55 am MDT SW 3.5 10.00 Fair -- 36.0 31.1 83% NA NA 29.85 M
12:55 am MDT SW 6.9 10.00 Fair -- 43.0 33.1 69% 39 NA 29.85 M
11:55 pm MDT SW 12.7 10.00 Fair -- 48.0 34.7 60% 43 NA 29.88 M
10:55 pm MDT W 6.9 10.00 Fair -- 48.0 34.7 60% 45 NA 29.90 M
9:55 pm MDT S 12.7 G 17.3 10.00 Fair -- 51.0 33.8 51% 46 NA 29.90 M
8:55 pm MDT S 8.1 10.00 Fair -- 52.0 33.8 50% 49 NA 29.91 M
7:55 pm MDT S 10.4 10.00 Fair -- 55.0 34.7 46% 52 NA 29.93 M
6:55 pm MDT S 6.9 10.00 Fair -- 56.0 35.4 45% 54 NA 29.95 M
6:35 pm MDT S 8.1 10.00 Fair -- 57.0 35.4 45% 55 NA 29.95 M
5:55 pm MDT S 6.9 10.00 Fair -- 60.0 33.4 36% 59 NA 29.95 M
4:55 pm MDT S 5.8 10.00 Fair -- 69.0 31.8 25% NA NA 29.97 M
3:55 pm MDT S 10.4 10.00 Fair -- 71.0 30.7 23% NA NA 30.00 M

Regional Weather Observation


Sidney, Sidney Municipal Airport, NE (KSNY)

Fair and Breezy
56.0 F

Holyoke Airport, CO (KHEQ)

Fair
61.0 F

Imperial, Imperial Municipal Airport, NE (KIML)

Fair
61.0 F

North Platte, North Platte Regional Airport, NE (KLBF)

Fair and Breezy
63.0 F

Alliance, Alliance Municipal Airport, NE (KAIA)

Fair and Breezy
56.0 F

Wray Municipal Airport, CO (K2V5)

Fair
63.0 F